FW6433 Weather Reports


time (UTC)temp
F
wind
direction
speed
knots
gust
knots
rain 1hr
in
rain 24hr
in
rain mn
in
humidity
%
barometer
mb
20260503211346 83 293 1.7 7.0 0.00 0.00 0.00 31 1011.6
20260503211111 82 2 2.6 7.0 0.00 0.00 0.00 33 1012.0
20260503210344 82 4 3.5 6.1 0.00 0.00 0.00 33 1011.8
20260503205844 82 357 3.5 7.0 0.00 0.00 0.00 33 1012.2
20260503205343 82 322 3.5 7.0 0.00 0.00 0.00 32 1011.9
20260503204845 82 271 3.5 5.2 0.00 0.00 0.00 34 1012.2
20260503204344 81 118 0.0 7.0 0.00 0.00 0.00 37 1012.2
20260503203844 81 246 5.2 7.0 0.00 0.00 0.00 35 1012.3
20260503203343 81 319 1.7 6.1 0.00 0.00 0.00 35 1012.1
20260503202843 81 2 2.6 6.1 0.00 0.00 0.00 35 1012.4
20260503202345 81 347 1.7 6.1 0.00 0.00 0.00 35 1012.3
20260503202331 80 234 1.7 6.1 0.00 0.00 0.00 36 1012.7
20260503201343 80 351 3.5 7.0 0.00 0.00 0.00 36 1012.5
20260503200845 81 266 1.7 7.0 0.00 0.00 0.00 36 1012.6
20260503200344 80 232 1.7 7.8 0.00 0.00 0.00 37 1012.5
20260503195844 80 262 1.7 7.8 0.00 0.00 0.00 37 1012.8
20260503195345 80 290 0.9 7.0 0.00 0.00 0.00 37 1012.7
20260503194845 79 290 0.0 6.1 0.00 0.00 0.00 38 1012.9
20260503194344 79 12 1.7 6.1 0.00 0.00 0.00 39 1012.9
20260503193844 78 306 4.3 6.1 0.00 0.00 0.00 39 1013.0
20260503193344 78 281 2.6 6.1 0.00 0.00 0.00 39 1013.2
20260503192844 78 311 2.6 6.1 0.00 0.00 0.00 41 1013.1
20260503192343 79 348 0.0 6.1 0.00 0.00 0.00 41 1013.1
20260503191842 78 358 0.9 3.5 0.00 0.00 0.00 43 1013.2
20260503191331 77 1 1.7 3.5 0.00 0.00 0.00 43 1013.3
20260503190834 77 333 2.6 3.5 0.00 0.00 0.00 43 1013.2
20260503190332 77 304 0.9 6.1 0.00 0.00 0.00 42 1013.4
20260503185821 76 355 3.5 6.1 0.00 0.00 0.00 42 1013.5
20260503185321 75 318 0.9 6.1 0.00 0.00 0.00 43 1013.6
20260503184820 75 299 2.6 7.8 0.00 0.00 0.00 43 1013.6
20260503184312 75 353 3.5 7.8 0.00 0.00 0.00 43 1013.7
20260503183811 75 1 3.5 6.1 0.00 0.00 0.00 43 1013.7
20260503183312 74 345 0.9 7.0 0.00 0.00 0.00 46 1013.8
20260503182811 74 14 0.9 7.0 0.00 0.00 0.00 44 1013.9
20260503182312 75 19 3.5 6.1 0.00 0.00 0.00 44 1014.0
20260503182035 74 21 2.6 6.1 0.00 0.00 0.00 44 1014.2
20260503181529 75 342 3.5 6.1 0.00 0.00 0.00 43 1014.0
20260503180802 74 289 1.7 6.1 0.00 0.00 0.00 45 1014.1
20260503180302 74 5 3.5 6.1 0.00 0.00 0.00 45 1014.2
20260503175800 74 207 0.9 5.2 0.00 0.00 0.00 45 1014.2
20260503175253 74 328 0.0 5.2 0.00 0.00 0.00 46 1014.1
20260503174744 73 27 0.0 5.2 0.00 0.00 0.00 47 1014.3
20260503174242 73 337 1.7 5.2 0.00 0.00 0.00 46 1014.1
20260503173730 73 341 1.7 6.1 0.00 0.00 0.00 47 1014.3
20260503173231 72 229 0.9 6.1 0.00 0.00 0.00 48 1014.2
20260503172942 72 25 2.6 6.1 0.00 0.00 0.00 49 1014.2
20260503172220 72 287 1.7 6.1 0.00 0.00 0.00 49 1014.3
20260503171715 71 323 1.7 5.2 0.00 0.00 0.00 51 1014.5
20260503171216 70 331 2.6 3.5 0.00 0.00 0.00 53 1014.4
20260503170715 70 0 1.7 5.2 0.00 0.00 0.00 54 1014.7
20260503170206 70 2 2.6 5.2 0.00 0.00 0.00 54 1014.4
20260503160140 65 341 0.0 2.6 0.00 0.00 0.00 66 1014.6
20260503150638 59 45 0.0 0.9 0.00 0.00 0.00 78 1015.0
20260503150137 59 71 0.0 0.9 0.00 0.00 0.00 78 1014.8
20260503140125 51 235 0.0 0.0 0.00 0.00 0.00 91 1014.6
20260503131101 51 212 0.0 0.0 0.00 0.00 0.00 91 1014.8
20260503131045 51 212 0.0 0.0 0.00 0.00 0.00 91 1014.7
20260503110444 53 307 0.0 0.0 0.00 0.00 0.00 88 1015.0
20260503090422 55 306 0.0 0.0 0.00 0.00 0.00 83 1014.9
20260503081420 55 97 0.0 0.0 0.00 0.00 0.00 78 1015.1
20260503081146 56 97 0.0 0.0 0.00 0.00 0.00 77 1015.2
20260503080419 56 97 0.0 0.0 0.00 0.00 0.00 77 1015.1
20260503072907 57 80 0.0 0.0 0.00 0.00 0.00 75 1014.9
20260503072358 57 79 0.0 0.0 0.00 0.00 0.00 74 1014.9
20260503071858 57 79 0.0 0.0 0.00 0.00 0.00 73 1015.0
20260503071358 58 97 0.0 0.0 0.00 0.00 0.00 74 1014.9
20260503070910 58 75 0.0 0.0 0.00 0.00 0.00 73 1015.1
20260503070412 58 41 0.0 0.0 0.00 0.00 0.00 73 1015.0
20260503060337 60 338 0.0 0.0 0.00 0.00 0.00 72 1014.6
20260503054836 60 336 0.0 0.0 0.00 0.00 0.00 71 1014.7
20260503054335 61 337 0.0 0.0 0.00 0.00 0.00 71 1014.4
20260503053836 61 343 0.0 0.0 0.00 0.00 0.00 71 1014.5
20260503053337 61 351 0.0 0.0 0.00 0.00 0.00 69 1014.7
20260503052848 61 351 0.0 0.0 0.00 0.00 0.00 71 1014.4
20260503052840 61 351 0.0 0.0 0.00 0.00 0.00 70 1014.6
20260503051825 62 352 0.0 0.0 0.00 0.00 0.00 69 1014.5
20260503051317 62 345 0.0 0.0 0.00 0.00 0.00 68 1014.4
20260503050817 62 344 0.0 0.0 0.00 0.00 0.00 68 1014.6
20260503050315 62 353 0.0 0.0 0.00 0.00 0.00 69 1014.5
20260503045814 62 350 0.0 0.0 0.00 0.00 0.00 69 1014.5
20260503045314 63 5 0.0 0.0 0.00 0.00 0.00 69 1014.5
20260503045036 63 342 0.0 0.0 0.00 0.00 0.00 67 1014.2
20260503044312 63 353 0.0 0.0 0.00 0.00 0.00 67 1014.6
20260503043812 63 347 0.0 0.0 0.00 0.00 0.00 66 1014.5
20260503043312 63 312 0.0 0.0 0.00 0.00 0.00 67 1014.4
20260503042813 64 320 0.0 0.0 0.00 0.00 0.00 67 1014.3
20260503042314 64 345 0.0 0.0 0.00 0.00 0.00 67 1014.3
20260503042037 64 335 0.0 0.0 0.00 0.00 0.00 67 1014.1
20260503041311 65 334 0.0 0.0 0.00 0.00 0.00 65 1014.1
20260503040813 65 344 0.0 0.9 0.00 0.00 0.00 64 1014.0
20260503040311 65 341 0.0 0.9 0.00 0.00 0.00 64 1014.1
20260503035813 65 341 0.0 0.9 0.00 0.00 0.00 64 1013.9
20260503035310 66 347 0.0 0.0 0.00 0.00 0.00 63 1013.7
20260503034812 66 333 0.0 0.0 0.00 0.00 0.00 63 1013.6
20260503034547 67 319 0.0 0.0 0.00 0.00 0.00 61 1013.5
20260503034034 67 326 0.0 0.9 0.00 0.00 0.00 61 1013.5
20260503033311 68 315 0.0 0.9 0.00 0.00 0.00 59 1013.6
20260503033034 68 342 0.0 0.9 0.00 0.00 0.00 59 1013.6
20260503032311 69 350 0.0 0.0 0.00 0.00 0.00 58 1013.4
20260503031812 69 332 0.0 0.9 0.00 0.00 0.00 57 1013.5
20260503031311 70 16 0.0 0.9 0.00 0.00 0.00 55 1013.3
20260503030812 71 353 0.0 3.5 0.00 0.00 0.00 53 1013.2
20260503030313 72 329 0.9 3.5 0.00 0.00 0.00 50 1013.1
20260503030042 72 326 0.9 2.6 0.00 0.00 0.00 49 1012.9
20260503030034 73 338 1.7 2.6 0.00 0.00 0.00 48 1013.0
20260503024800 73 291 0.9 3.5 0.00 0.00 0.00 47 1012.9
20260503024259 74 6 0.9 3.5 0.00 0.00 0.00 46 1013.0
20260503023748 74 273 0.0 1.7 0.00 0.00 0.00 46 1012.9
20260503023247 75 290 0.0 2.6 0.00 0.00 0.00 45 1012.9
20260503022745 75 284 0.0 5.2 0.00 0.00 0.00 44 1012.9
20260503022237 76 258 0.9 5.2 0.00 0.00 0.00 43 1012.8
20260503021737 76 228 0.9 2.6 0.00 0.00 0.00 42 1012.8
20260503021508 77 283 0.9 2.6 0.00 0.00 0.00 42 1012.8
20260503020959 77 271 2.6 2.6 0.00 0.00 0.00 41 1012.7
20260503020234 77 334 0.0 2.6 0.00 0.00 0.00 42 1012.7
20260503015734 77 256 0.9 2.6 0.00 0.00 0.00 41 1012.8
20260503015229 77 245 0.9 5.2 0.00 0.00 0.00 41 1012.8
20260503014727 77 269 0.9 6.1 0.00 0.00 0.00 41 1012.8
20260503014216 77 58 0.9 7.0 0.00 0.00 0.00 42 1012.9
20260503013707 77 244 2.6 7.0 0.00 0.00 0.00 41 1012.8
20260503013206 77 1 0.9 6.1 0.00 0.00 0.00 41 1012.8
20260503012706 77 15 2.6 6.1 0.00 0.00 0.00 41 1012.7
20260503012207 78 253 0.0 7.0 0.00 0.00 0.00 40 1012.9
20260503011705 78 329 0.9 7.0 0.00 0.00 0.00 39 1012.8
20260503011206 78 287 1.7 7.0 0.00 0.00 0.00 40 1012.9
20260503010707 78 234 2.6 7.0 0.00 0.00 0.00 40 1013.0
20260503010206 78 258 3.5 7.0 0.00 0.00 0.00 39 1013.1
20260503005705 78 299 0.0 5.2 0.00 0.00 0.00 40 1012.9
20260503005433 78 324 1.7 6.1 0.00 0.00 0.00 40 1013.0
20260503004653 78 35 2.6 6.1 0.00 0.00 0.00 39 1013.0
20260503004152 78 9 1.7 5.2 0.00 0.00 0.00 39 1013.3
20260503003651 78 307 0.9 7.0 0.00 0.00 0.00 39 1013.3
20260503003151 79 251 0.0 7.0 0.00 0.00 0.00 39 1013.4
20260503002652 78 268 0.0 7.0 0.00 0.00 0.00 39 1012.9
20260503002146 78 328 4.3 8.7 0.00 0.00 0.00 39 1013.0
20260503001648 78 325 6.1 8.7 0.00 0.00 0.00 39 1013.2
20260503001417 78 276 3.5 7.0 0.00 0.00 0.00 39 1013.2
20260503000644 78 272 2.6 7.0 0.00 0.00 0.00 39 1013.3
20260503000122 79 288 2.6 7.8 0.00 0.00 0.00 39 1013.1
20260502235620 78 239 1.7 7.8 0.00 0.00 0.00 41 1013.4
20260502235121 77 271 0.9 7.0 0.00 0.00 0.00 41 1013.2
20260502234622 77 339 2.6 7.0 0.00 0.00 0.00 41 1013.5
20260502234353 78 354 0.9 6.1 0.00 0.00 0.00 40 1013.4
20260502233621 78 216 0.9 6.1 0.00 0.00 0.00 40 1013.5
20260502233120 78 320 2.6 7.8 0.00 0.00 0.00 40 1013.5
20260502232622 78 348 2.6 8.7 0.00 0.00 0.00 42 1013.7
20260502232121 77 324 1.7 8.7 0.00 0.00 0.00 43 1013.6
20260502231620 78 359 1.7 7.8 0.00 0.00 0.00 42 1013.7
20260502231351 77 262 4.3 7.8 0.00 0.00 0.00 43 1013.8
20260502230849 78 7 2.6 6.1 0.00 0.00 0.00 44 1014.1
20260502230119 77 276 0.9 7.0 0.00 0.00 0.00 45 1014.0
20260502225618 77 27 4.3 7.0 0.00 0.00 0.00 45 1014.2
20260502225351 77 345 5.2 7.8 0.00 0.00 0.00 44 1014.2
20260502224632 77 247 3.5 7.8 0.00 0.00 0.00 44 1014.2
20260502224119 77 273 2.6 6.1 0.00 0.00 0.00 44 1014.6
20260502223619 77 221 0.9 6.1 0.00 0.00 0.00 45 1014.5
20260502223119 77 298 3.5 7.8 0.00 0.00 0.00 44 1014.6
20260502222838 77 297 1.7 7.8 0.00 0.00 0.00 45 1014.5
20260502222108 77 351 0.9 7.8 0.00 0.00 0.00 45 1014.4
20260502221607 76 240 2.6 7.8 0.00 0.00 0.00 45 1014.7
20260502221335 77 319 2.6 7.8 0.00 0.00 0.00 44 1014.6
20260502221058 76 348 2.6 7.8 0.00 0.00 0.00 44 1014.7
20260502220107 77 328 2.6 6.1 0.00 0.00 0.00 44 1014.5
20260502215841 76 349 2.6 6.1 0.00 0.00 0.00 45 1014.6
20260502215107 76 358 2.6 6.1 0.00 0.00 0.00 45 1014.8
20260502214608 77 43 2.6 3.5 0.00 0.00 0.00 45 1014.8
20260502214105 77 297 0.0 6.1 0.00 0.00 0.00 45 1015.0
20260502213556 76 253 0.0 7.8 0.00 0.00 0.00 46 1014.9
20260502213055 76 288 2.6 7.8 0.00 0.00 0.00 45 1014.9
20260502212546 75 297 1.7 7.0 0.00 0.00 0.00 47 1015.2
20260502212045 74 276 3.5 7.0 0.00 0.00 0.00 47 1015.1
20260502211544 74 22 2.6 7.8 0.00 0.00 0.00 48 1015.2